Regional Weather Roundup
Issued by NWS Northern Indiana

Home | Current Version | Previous Version | Graphics & Text | Print | Product List | Glossary On
Versions: 1 2 3 4 5 6 7 8 9 10 11 12 13 14 15 16 17 18 19 20 21 22 23 24 25 26 27 28 29 30 31 32 33 34 35 36 37 38 39 40 41 42 43 44 45 46 47 48 49 50
000
ASUS43 KIWX 201410
RWRIWX

KIWX WEATHER ROUNDUP
NATIONAL WEATHER SERVICE NORTHERN INDIANA
900 AM EST SAT DEC 20 2014

NOTE: "FAIR" INDICATES FEW OR NO CLOUDS BELOW 12,000 FEET WITH NO
SIGNIFICANT WEATHER AND/OR OBSTRUCTIONS TO VISIBILITY.

* THESE STATIONS ARE NOT UNDER NWS QUALITY CONTROL. THEY ALSO MAY NOT
  REPORT WEATHER SUCH AS PRECIPITATION OR FOG.

INZ001>027-201500-
NORTHERN INDIANA

CITY           SKY/WX    TMP DP  RH WIND       PRES   REMARKS
GARY*          CLOUDY    32  23  69 CALM      30.30
VALPARAISO     CLOUDY    30  25  81 S3        30.29R
MICHIGAN CITY* CLOUDY    32  21  64 SW3       30.29R
LAPORTE*       CLOUDY    32  26  78 CALM      30.28S
KNOX*          CLOUDY    30  23  75 CALM      30.28S
SOUTH BEND     CLOUDY    31  25  78 W3        30.28S
GOSHEN         CLOUDY    26  24  92 CALM      30.28S FOG
MONTICELLO*    CLOUDY    29  27  92 CALM      30.29R
LOGANSPORT*    CLOUDY    30  28  93 CALM      30.30R FOG
ROCHESTER*     MOCLDY    32  30  93 CALM      30.29S FOG
WARSAW*        CLOUDY    30  28  93 CALM      30.28S FOG
ANGOLA*        MOCLDY    25  21  86 CALM      30.27S
FORT WAYNE     CLOUDY    27  24  89 CALM      30.30S FOG
HUNTINGTON*    CLOUDY    29  28  97 CALM      30.29S FOG
PERU/GRISSOM   CLOUDY    28  28 100 W1        30.29R FOG
MARION*        CLOUDY    29  28  98 CALM      30.29S FOG

$$
INZ028>050-201500-
CENTRAL INDIANA

CITY           SKY/WX    TMP DP  RH WIND       PRES   REMARKS
LAFAYETTE      CLOUDY    29  28  96 CALM      30.30R FOG
KOKOMO*        CLOUDY    28  25  86 CALM      30.29S
MUNCIE*        CLOUDY    29  25  85 CALM      30.29S FOG
INDIANAPOLIS   CLOUDY    28  25  88 CALM      30.28S FOG

$$
MIZ043>046-050>051-056>058-064>065-071>073-077>080-201500-
SOUTHWEST LOWER MICHIGAN

CITY           SKY/WX    TMP DP  RH WIND       PRES   REMARKS
BATTLE CREEK   PTCLDY    24  20  84 CALM      30.28S FOG
BENTON HARBOR  CLOUDY    29  25  85 E3        30.27F
COLDWATER*     PTCLDY    24  23  96 MISG      30.28S FOG
HILLSDALE*     CLOUDY    28  21  76 CALM      30.27R
HOLLAND        CLOUDY    25  20  81 SE3       30.28F
GRAND RAPIDS   MOCLDY    20  17  88 E3        30.29R
KALAMAZOO      PTCLDY    21  17  84 CALM      30.28F FOG
STURGIS*       PTCLDY    19  18  93 CALM      30.27S FOG
THREE RIVERS*  FAIR      20  18  91 CALM      30.28F FOG

$$
OHZ001>008-015>018-024>025-201500-
NORTHWEST OHIO

CITY           SKY/WX    TMP DP  RH WIND       PRES   REMARKS
WAUSEON*       CLOUDY    28  25  86 S3        30.30R
DEFIANCE       CLOUDY    27  24  89 CALM      30.30R FOG
FINDLAY        CLOUDY    30  23  75 S3        30.29R
TOLEDO EXPRESS CLOUDY    29  21  72 CALM      30.30R
TOLEDO METCALF CLOUDY    30  21  69 S5        30.31R WCI  25
LIMA           CLOUDY    30  24  78 CALM      30.28R

$$
AND FOR LAKE MICHIGAN COASTAL AND OPEN LAKE BUOY OBSERVATIONS

STATION/POSITION TEMP    WIND        PRES    VSBY  WAVE
                 AIR SEA DIR/SP/G                  HT/PER
                 (F)     (DEG/KT/KT) (MB)    (MI)  (FT/S)
CALUMET HARBOR    31     220/  4/  5 1024.2S
SAINT JOSEPH      31     110/  2/  4 1024.7F

$$
&&


USA.gov is the U.S. government's official web portal to all federal, state and local government web resources and services.